PBO Station Position Time Series. Reference Frame : NAM14
Format Version,1.1.0
4-character ID,P124
Station name,WellsvilleUT2007
Begin Date, 2007-03-28
End Date, 2019-10-07
Release Date, 2019-10-08
Reference position, 41.5575909664 North Latitude, -111.9573679296 East Longitude, 1772.95090 meters elevation,
Date, North (mm), East (mm), Vertical (mm), North Std. Deviation (mm), East Std. Deviation (mm),              Vertical Std. Deviation (mm), Quality,
2007-03-28,0.00, 0.00, 0.00, 2.14, 1.62, 7.36, repro,
2007-03-29,-0.07, 1.40, 0.72, 2.07, 1.60, 7.17, repro,
2007-03-30,1.08, 1.69, -3.93, 2.12, 1.63, 7.24, repro,
2007-03-31,0.59, -5.04, -4.87, 2.06, 1.56, 6.97, repro,
2007-04-01,0.42, 3.15, 10.85, 2.08, 1.59, 7.12, repro,
2007-04-02,0.30, 2.34, 7.94, 2.10, 1.62, 7.16, repro,
2007-04-03,-0.45, -0.42, 1.24, 2.20, 1.72, 7.88, repro,
2007-04-04,0.07, 1.68, -3.37, 2.16, 1.67, 7.49, repro,
2007-04-05,1.21, 0.74, -2.31, 2.23, 1.72, 7.67, repro,
2007-04-06,0.11, 1.71, -0.94, 2.22, 1.72, 7.69, repro,
2007-04-07,0.29, 1.38, 6.73, 2.19, 1.68, 7.55, repro,
2007-04-08,-0.99, 0.66, 2.11, 2.07, 1.60, 7.17, repro,
2007-04-09,3.29, 1.61, -3.49, 2.11, 1.62, 7.20, repro,
2007-04-10,2.29, 1.29, 0.67, 2.13, 1.67, 7.32, repro,
2007-04-11,-0.10, -0.22, 7.18, 2.13, 1.64, 7.28, repro,
2007-04-12,0.34, 1.88, 8.50, 2.15, 1.66, 7.45, repro,
2007-04-13,-1.80, 1.59, 3.74, 2.13, 1.64, 7.37, repro,
2007-04-14,0.20, 0.96, 4.52, 2.18, 1.67, 7.55, repro,
2007-04-15,0.41, 1.37, 6.00, 2.15, 1.68, 7.47, repro,
2007-04-16,0.27, 2.04, 10.11, 2.11, 1.64, 7.25, repro,
2007-04-17,-1.40, -0.62, 8.70, 2.15, 1.64, 7.41, repro,
2007-04-18,-2.13, 0.44, 11.08, 2.14, 1.64, 7.43, repro,
2007-04-19,-1.35, 2.14, 9.40, 2.18, 1.65, 7.51, repro,
2007-04-20,0.67, 1.28, 4.69, 2.18, 1.70, 7.62, repro,
2007-04-21,0.28, 0.63, 7.20, 2.13, 1.64, 7.24, repro,
2007-04-22,-0.13, 0.69, 7.55, 2.12, 1.63, 7.29, repro,
2007-04-23,1.49, -0.25, 3.72, 2.14, 1.65, 7.30, repro,
2007-04-24,-0.12, 1.90, 2.76, 2.19, 1.70, 7.56, repro,
2007-04-25,-0.96, 0.34, 4.55, 2.16, 1.67, 7.43, repro,
2007-04-26,0.83, 0.16, 4.35, 2.17, 1.66, 7.46, repro,
2007-04-27,-0.12, 0.50, 5.28, 2.16, 1.68, 7.38, repro,
2007-04-28,0.08, 0.63, 0.32, 2.13, 1.63, 7.30, repro,
2007-04-29,0.18, 1.46, 4.50, 2.10, 1.57, 7.11, repro,
2007-04-30,-1.27, 2.25, 7.90, 2.17, 1.65, 7.46, repro,
2007-05-01,-0.10, 1.11, 8.89, 2.14, 1.62, 7.27, repro,
2007-05-02,1.15, 2.29, 11.30, 2.22, 1.69, 7.50, repro,
2007-05-03,-1.80, -0.03, 3.61, 2.20, 1.64, 7.40, repro,
2007-05-04,0.39, 0.57, 9.83, 2.14, 1.62, 7.28, repro,
2007-05-05,-0.86, 0.44, 6.17, 2.17, 1.65, 7.42, repro,
2007-05-06,0.50, -0.21, 2.64, 2.13, 1.61, 7.19, repro,
2007-05-07,-0.66, 2.13, 2.70, 2.15, 1.64, 7.39, repro,
2007-05-08,1.33, 1.50, -0.71, 2.19, 1.67, 7.43, repro,
2007-05-09,1.04, 0.32, 1.75, 2.15, 1.62, 7.30, repro,
2007-05-10,0.61, 2.31, 2.31, 2.27, 1.70, 7.73, repro,
2007-05-11,-0.18, 1.55, 3.40, 2.23, 1.69, 7.56, repro,
2007-05-12,0.73, 2.98, 6.76, 2.12, 1.59, 7.09, repro,
2007-05-13,0.30, 1.01, 4.46, 2.17, 1.64, 7.34, repro,
2007-05-14,0.75, 1.29, 0.94, 2.10, 1.58, 7.11, repro,
2007-05-15,0.80, 0.82, 5.45, 2.10, 1.56, 7.05, repro,
2007-05-16,0.64, 1.20, -3.60, 2.13, 1.61, 7.20, repro,
2007-05-17,-0.14, 0.94, 4.35, 2.09, 1.60, 7.06, repro,
2007-05-18,-0.19, 1.58, 2.00, 2.13, 1.62, 7.22, repro,
2007-05-19,0.36, 1.83, 5.31, 2.14, 1.58, 7.15, repro,
2007-05-20,1.20, 1.61, 4.40, 2.14, 1.58, 7.13, repro,
2007-05-21,0.84, 2.15, 5.64, 2.11, 1.60, 7.03, repro,
2007-05-22,0.42, -1.89, 10.17, 2.08, 1.56, 6.95, repro,
2007-05-23,0.88, 0.65, 4.54, 2.08, 1.55, 6.93, repro,
2007-05-24,0.38, 0.84, -2.34, 2.18, 1.66, 7.40, repro,
2007-05-25,0.21, 0.56, 8.62, 2.19, 1.65, 7.35, repro,
2007-05-26,0.57, 1.08, 1.58, 2.12, 1.59, 7.06, repro,
2007-05-27,1.77, 0.41, 3.08, 2.07, 1.55, 6.87, repro,
2007-05-28,0.94, 1.95, 10.92, 2.07, 1.54, 6.83, repro,
2007-05-29,0.55, 1.29, 5.09, 2.11, 1.59, 7.11, repro,
2007-05-30,0.27, 0.84, -0.13, 2.13, 1.57, 7.02, repro,
2007-05-31,1.08, 0.35, -1.67, 2.12, 1.60, 7.06, repro,
2007-06-01,0.06, 1.18, 6.44, 2.08, 1.56, 6.92, repro,
2007-06-02,1.12, 2.96, 10.16, 2.06, 1.56, 6.92, repro,
2007-06-03,0.79, 0.54, 14.81, 2.16, 1.63, 7.22, repro,
2007-06-04,-0.22, 1.45, 7.28, 2.06, 1.56, 6.89, repro,
2007-06-05,0.92, 1.39, 10.30, 2.10, 1.58, 7.07, repro,
2007-06-06,0.21, -1.25, 11.56, 2.07, 1.56, 6.98, repro,
2007-06-07,1.26, -1.39, 6.24, 2.06, 1.55, 6.89, repro,
2007-06-08,1.21, -0.02, 0.99, 2.06, 1.55, 6.86, repro,
2007-06-09,1.66, 1.60, -2.31, 2.09, 1.59, 7.06, repro,
2007-06-10,0.84, 1.67, -1.69, 2.05, 1.56, 6.89, repro,
2007-06-11,0.44, 1.87, 0.65, 2.12, 1.64, 7.21, repro,
2007-06-12,1.23, 1.87, 5.05, 2.07, 1.59, 7.03, repro,
2007-06-13,2.68, 2.58, -1.10, 2.10, 1.60, 7.03, repro,
2007-06-14,1.69, 0.97, -1.05, 2.10, 1.62, 7.14, repro,
2007-06-15,1.78, 1.55, 1.33, 2.05, 1.56, 6.92, repro,
2007-06-16,1.66, 2.51, 4.07, 2.05, 1.56, 6.92, repro,
2007-06-17,1.68, 0.96, 9.55, 2.07, 1.58, 7.00, repro,
2007-06-18,1.19, -0.26, 5.75, 2.07, 1.56, 6.94, repro,
2007-06-19,0.85, 0.06, 0.37, 2.06, 1.56, 6.94, repro,
2007-06-20,1.42, 1.78, 1.17, 2.06, 1.56, 6.92, repro,
2007-06-21,0.97, 3.04, 5.84, 2.04, 1.55, 6.83, repro,
2007-06-22,1.01, 2.03, -0.54, 2.04, 1.55, 6.89, repro,
2007-06-23,2.64, -0.23, 1.32, 2.05, 1.55, 6.88, repro,
2007-06-24,0.51, -0.06, 4.12, 2.11, 1.61, 7.20, repro,
2007-06-25,0.24, 2.55, 4.57, 2.11, 1.60, 7.05, repro,
2007-06-26,2.53, 2.00, -1.26, 2.06, 1.56, 6.90, repro,
2007-06-27,1.98, 1.58, -4.61, 2.05, 1.56, 6.91, repro,
2007-06-28,2.43, 1.84, -2.63, 2.07, 1.55, 6.90, repro,
2007-06-29,2.76, 0.63, -0.12, 2.07, 1.55, 6.95, repro,
2007-06-30,2.04, 2.26, 2.39, 2.17, 1.68, 7.38, repro,
2007-07-01,0.48, 2.64, 4.16, 2.06, 1.56, 6.94, repro,
2007-07-02,1.39, 2.92, 8.54, 2.07, 1.56, 6.95, repro,
2007-07-03,0.44, 2.54, 4.94, 2.12, 1.61, 7.12, repro,
2007-07-04,1.27, 2.09, 1.53, 2.05, 1.56, 6.91, repro,
2007-07-05,-0.37, 4.20, 6.70, 2.09, 1.58, 7.08, repro,
2007-07-06,0.78, 1.72, 4.42, 2.12, 1.64, 7.21, repro,
2007-07-07,1.75, 1.33, -0.62, 2.07, 1.58, 7.05, repro,
2007-07-08,0.53, 2.96, 7.39, 2.24, 1.81, 7.75, repro,
2007-07-09,1.58, 2.48, 9.43, 2.10, 1.62, 7.10, repro,
2007-07-10,1.03, 2.49, 8.05, 2.10, 1.62, 7.10, repro,
2007-07-11,0.53, 2.90, 6.73, 2.08, 1.58, 7.02, repro,
2007-07-12,2.65, 0.08, -4.92, 2.11, 1.63, 7.19, repro,
2007-07-13,0.28, 2.29, 10.99, 2.11, 1.63, 7.13, repro,
2007-07-14,1.12, 2.70, -1.11, 2.16, 1.69, 7.32, repro,
2007-07-15,0.97, 2.17, 2.95, 2.12, 1.64, 7.23, repro,
2007-07-16,-0.46, 2.06, 6.65, 2.09, 1.64, 7.12, repro,
2007-07-17,0.32, 3.06, 5.49, 2.09, 1.60, 7.08, repro,
2007-07-18,4.52, 0.17, 11.23, 2.08, 1.57, 7.02, repro,
2007-07-19,1.52, 1.28, 9.75, 2.09, 1.59, 7.09, repro,
2007-07-20,2.90, 3.23, 17.80, 2.11, 1.63, 7.08, repro,
2007-07-21,2.00, 1.09, 6.96, 2.11, 1.64, 7.16, repro,
2007-07-22,2.38, 2.51, 2.19, 2.11, 1.64, 7.17, repro,
2007-07-23,0.79, 1.41, 6.64, 2.11, 1.64, 7.15, repro,
2007-07-24,1.43, 1.73, -0.25, 2.12, 1.64, 7.17, repro,
2007-07-25,2.65, -2.18, 9.20, 2.13, 1.64, 7.17, repro,
2007-07-26,2.64, 1.20, 6.00, 2.09, 1.59, 7.08, repro,
2007-07-27,0.05, 4.88, 5.49, 2.19, 1.71, 7.43, repro,
2007-07-28,0.03, 3.46, 2.95, 2.09, 1.61, 7.13, repro,
2007-07-29,3.73, 2.82, 20.60, 2.17, 1.70, 7.42, repro,
2007-07-30,2.26, 1.71, 13.02, 2.14, 1.64, 7.27, repro,
2007-07-31,2.36, 4.41, 13.36, 2.08, 1.59, 7.08, repro,
2007-08-01,1.49, 2.84, 12.91, 2.12, 1.64, 7.20, repro,
2007-08-02,2.63, 3.48, 10.86, 2.13, 1.64, 7.21, repro,
2007-08-03,1.54, 1.05, 8.97, 2.12, 1.65, 7.25, repro,
2007-08-04,1.62, 1.34, 13.50, 2.08, 1.59, 7.11, repro,
2007-08-05,3.92, 1.58, 21.61, 2.16, 1.64, 7.32, repro,
2007-08-06,1.55, 2.57, 16.53, 2.13, 1.63, 7.37, repro,
2007-08-07,5.21, 4.14, 15.62, 2.13, 1.62, 7.27, repro,
2007-08-08,1.35, 3.68, 20.24, 2.05, 1.56, 6.95, repro,
2007-08-09,3.28, 2.50, 9.64, 2.08, 1.59, 7.13, repro,
2007-08-10,4.44, 4.27, 14.70, 2.07, 1.57, 7.01, repro,
2007-08-11,2.97, 2.44, 15.13, 2.07, 1.58, 6.98, repro,
2007-08-12,3.29, 5.88, 11.04, 2.13, 1.64, 7.27, repro,
2007-08-13,3.86, 6.85, 10.40, 2.09, 1.60, 7.09, repro,
2007-08-14,1.29, 1.43, 14.15, 2.26, 1.74, 7.65, repro,
2007-08-15,2.40, 1.22, 12.21, 2.29, 1.74, 7.75, repro,
2007-08-16,2.12, 1.67, 6.08, 2.23, 1.70, 7.58, repro,
2007-08-17,3.85, 1.77, 12.77, 2.20, 1.63, 7.36, repro,
2007-08-18,2.91, 5.69, 16.33, 2.22, 1.68, 7.62, repro,
2007-08-19,1.42, 5.04, 21.21, 2.22, 1.71, 7.69, repro,
2007-08-20,1.96, 2.07, 10.20, 2.15, 1.62, 7.19, repro,
2007-08-21,2.66, 3.61, 10.06, 2.21, 1.69, 7.49, repro,
2007-08-22,1.76, 2.76, 15.55, 2.28, 1.72, 7.68, repro,
2007-08-23,1.00, 2.22, 18.57, 2.15, 1.59, 7.16, repro,
2007-08-24,3.12, 1.22, 14.00, 2.24, 1.66, 7.39, repro,
2007-08-25,2.18, 1.64, 10.87, 2.21, 1.71, 7.42, repro,
2007-08-26,0.64, 2.73, 19.04, 2.23, 1.73, 7.69, repro,
2007-08-27,5.38, -2.62, -5.25, 2.22, 1.70, 7.45, repro,
2007-08-28,1.21, 2.31, 9.81, 2.21, 1.68, 7.48, repro,
2007-08-29,2.85, 3.18, 14.25, 2.17, 1.66, 7.35, repro,
2007-08-30,2.22, 1.20, 8.55, 2.20, 1.72, 7.47, repro,
2007-08-31,1.46, 2.16, 9.19, 2.19, 1.67, 7.36, repro,
2007-09-01,4.05, 1.08, 2.58, 2.18, 1.67, 7.31, repro,
2007-09-02,1.83, 3.02, 11.47, 2.20, 1.67, 7.40, repro,
2007-09-03,3.26, 2.54, 6.77, 2.22, 1.74, 7.56, repro,
2007-09-04,2.03, 2.48, 20.58, 2.21, 1.72, 7.41, repro,
2007-09-05,2.68, 1.84, 15.98, 2.29, 1.76, 7.73, repro,
2007-09-06,3.21, 0.44, 9.20, 2.17, 1.66, 7.30, repro,
2007-09-07,3.73, 2.50, 3.29, 2.18, 1.66, 7.31, repro,
2007-09-08,2.05, 2.08, 8.78, 2.32, 1.83, 7.84, repro,
2007-09-09,3.18, 3.45, 8.44, 2.31, 1.82, 7.87, repro,
2007-09-10,2.71, 2.63, 9.53, 2.19, 1.67, 7.33, repro,
2007-09-11,3.25, 1.56, 2.97, 2.19, 1.66, 7.32, repro,
2007-09-12,4.92, 1.97, 3.97, 2.19, 1.66, 7.27, repro,
2007-09-13,2.89, 2.30, 12.94, 2.32, 1.68, 7.63, repro,
2007-09-14,4.07, 3.70, 14.34, 2.27, 1.78, 7.91, repro,
2007-09-15,1.71, 3.23, 15.35, 2.40, 1.85, 8.12, repro,
2007-09-16,3.70, 2.10, 8.38, 2.19, 1.65, 7.25, repro,
2007-09-17,4.12, 3.06, 6.63, 2.32, 1.79, 7.94, repro,
2007-09-18,3.44, 3.35, 5.06, 2.17, 1.68, 7.46, repro,
2007-09-19,2.18, 0.53, 14.75, 2.15, 1.67, 7.26, repro,
2007-09-20,4.12, 3.38, 12.39, 2.21, 1.73, 7.44, repro,
2007-09-21,4.55, 1.36, 11.84, 2.27, 1.75, 7.69, repro,
2007-09-22,6.43, 3.60, 8.79, 2.25, 1.69, 7.50, repro,
2007-09-23,4.50, 0.97, 19.40, 2.20, 1.65, 7.41, repro,
2007-09-24,2.09, 2.38, 11.18, 2.23, 1.66, 7.45, repro,
2007-09-25,2.35, 2.02, 4.35, 2.16, 1.64, 7.35, repro,
2007-09-26,3.63, 0.71, 10.44, 2.14, 1.59, 7.08, repro,
2007-09-27,3.68, 1.77, 7.78, 2.23, 1.71, 7.57, repro,
2007-09-28,3.62, 2.30, 15.26, 2.22, 1.74, 7.59, repro,
2007-09-29,2.48, 3.87, 12.35, 2.17, 1.69, 7.43, repro,
2007-09-30,1.67, 2.54, 12.31, 2.20, 1.70, 7.50, repro,
2007-10-01,3.07, 1.78, 9.56, 2.23, 1.75, 7.60, repro,
2007-10-02,1.63, -0.38, 13.55, 2.22, 1.72, 7.58, repro,
2007-10-03,6.07, 7.53, 3.50, 2.22, 1.75, 7.64, repro,
2007-10-04,2.78, 1.18, 10.87, 2.21, 1.74, 7.63, repro,
2007-10-05,2.24, 4.82, 10.46, 2.25, 1.81, 7.88, repro,
2007-10-06,3.27, 1.82, 9.38, 2.28, 1.76, 7.74, repro,
2007-10-07,1.84, -0.46, 0.70, 2.30, 1.77, 7.72, repro,
2007-10-08,2.19, 2.45, 6.87, 2.55, 1.91, 8.55, repro,
2007-10-09,3.22, 2.99, 4.42, 2.44, 1.96, 8.31, repro,
2007-10-10,5.08, 2.62, 11.04, 2.34, 1.74, 7.83, repro,
2007-10-11,3.14, 2.94, 6.38, 2.22, 1.76, 7.61, repro,
2007-10-12,3.47, 2.22, 16.50, 2.25, 1.77, 7.72, repro,
2007-10-13,1.82, 1.72, 17.78, 2.13, 1.65, 7.23, repro,
2007-10-14,2.92, 2.58, 9.49, 2.17, 1.71, 7.41, repro,
2007-10-15,2.70, 1.03, 4.80, 2.15, 1.70, 7.32, repro,
2007-10-16,3.47, 1.94, 16.37, 2.22, 1.79, 7.73, repro,
2007-10-17,2.55, 1.63, 14.99, 2.13, 1.63, 7.20, repro,
2007-10-18,1.71, -0.88, 16.76, 2.18, 1.72, 7.52, repro,
2007-10-19,5.35, 8.72, 4.03, 2.17, 1.71, 7.45, repro,
2007-10-20,2.65, 1.40, 20.91, 2.16, 1.70, 7.35, repro,
2007-10-21,2.36, 2.13, 5.65, 2.18, 1.71, 7.54, repro,
2007-10-22,2.81, 1.96, -4.07, 2.16, 1.71, 7.41, repro,
2007-10-23,1.95, 3.35, 1.47, 2.27, 1.77, 7.77, repro,
2007-10-24,1.67, 4.14, 0.77, 2.27, 1.81, 7.86, repro,
2007-10-25,2.11, -0.66, 2.99, 2.16, 1.69, 7.34, repro,
2007-10-26,2.34, 3.55, 2.85, 2.21, 1.74, 7.66, repro,
2007-10-27,3.23, 2.59, 1.30, 2.18, 1.69, 7.41, repro,
2007-10-28,2.77, 3.05, -0.05, 2.19, 1.70, 7.50, repro,
2007-10-29,2.82, 1.58, 2.08, 2.18, 1.68, 7.40, repro,
2007-10-30,5.15, 2.48, 2.27, 2.15, 1.69, 7.33, repro,
2007-10-31,2.09, 3.07, 6.27, 2.15, 1.68, 7.31, repro,
2007-11-01,2.68, 0.64, 4.46, 2.17, 1.68, 7.39, repro,
2007-11-02,1.32, 3.18, 8.56, 2.18, 1.67, 7.39, repro,
2007-11-03,0.97, 3.44, 3.42, 2.13, 1.62, 7.21, repro,
2007-11-04,2.91, 1.28, -2.18, 2.17, 1.71, 7.39, repro,
2007-11-05,3.12, 0.79, -2.55, 2.16, 1.67, 7.33, repro,
2007-11-06,3.07, 3.96, 5.47, 2.22, 1.78, 7.85, repro,
2007-11-07,2.49, 0.68, 3.92, 2.21, 1.70, 7.55, repro,
2007-11-08,1.66, 0.60, 9.45, 2.22, 1.72, 7.60, repro,
2007-11-09,2.87, 0.68, 3.31, 2.19, 1.71, 7.42, repro,
2007-11-10,2.37, 2.22, 8.98, 2.12, 1.64, 7.14, repro,
2007-11-11,2.14, 3.30, 11.13, 2.18, 1.73, 7.35, repro,
2007-11-12,1.17, 1.81, 7.61, 2.18, 1.74, 7.49, repro,
2007-11-13,0.68, 2.91, -1.83, 2.14, 1.67, 7.28, repro,
2007-11-14,2.24, 2.76, 5.79, 2.14, 1.66, 7.23, repro,
2007-11-15,2.69, 2.07, 2.50, 2.22, 1.70, 7.56, repro,
2007-11-16,2.97, -0.26, 10.67, 2.13, 1.66, 7.18, repro,
2007-11-17,3.81, 2.70, 10.75, 2.15, 1.70, 7.41, repro,
2007-11-18,3.96, 6.59, 5.00, 2.15, 1.67, 7.29, repro,
2007-11-19,3.79, 5.78, 14.94, 2.18, 1.69, 7.40, repro,
2007-11-20,2.13, 4.12, 13.87, 2.21, 1.78, 7.54, repro,
2007-11-21,3.07, 1.88, 2.08, 2.20, 1.74, 7.50, repro,
2007-11-22,4.02, 3.01, -3.81, 2.20, 1.78, 7.64, repro,
2007-11-23,3.98, 2.33, 2.61, 2.24, 1.82, 7.78, repro,
2007-11-24,1.78, 3.54, 15.95, 2.26, 1.82, 7.80, repro,
2007-11-25,2.35, 4.58, 15.91, 2.25, 1.78, 7.68, repro,
2007-11-26,1.81, 3.34, 10.12, 2.20, 1.71, 7.54, repro,
2007-11-27,3.43, 2.28, 1.32, 2.24, 1.81, 7.67, repro,
2007-11-28,4.28, -0.08, -0.92, 2.19, 1.75, 7.41, repro,
2007-11-29,3.90, 4.02, -4.68, 2.23, 1.72, 7.50, repro,
2007-11-30,1.87, 3.76, 13.34, 2.27, 1.85, 7.82, repro,
2007-12-01,3.05, 3.07, 13.75, 2.21, 1.75, 7.63, repro,
2007-12-02,3.58, 3.89, 8.57, 2.16, 1.65, 7.34, repro,
2007-12-03,2.00, 1.97, 0.40, 2.31, 1.77, 8.09, repro,
2007-12-04,3.00, 2.19, -3.89, 2.33, 1.90, 8.18, repro,
2007-12-05,3.15, 2.90, 7.59, 2.40, 1.95, 8.40, repro,
2007-12-06,2.20, -0.20, 11.99, 2.24, 1.75, 7.71, repro,
2007-12-07,3.45, 2.61, 9.64, 2.36, 1.85, 8.05, repro,
2007-12-08,3.85, 0.66, 7.46, 2.28, 1.83, 7.72, repro,
2007-12-09,3.72, 2.66, 1.53, 2.51, 1.99, 8.51, repro,
2007-12-10,4.25, 2.09, 2.07, 2.20, 1.74, 7.45, repro,
2007-12-11,3.17, 1.91, 5.46, 2.17, 1.72, 7.43, repro,
2007-12-12,2.89, 2.78, 3.90, 2.19, 1.68, 7.42, repro,
2007-12-13,3.09, 2.42, 2.18, 2.24, 1.65, 7.39, repro,
2007-12-14,3.16, 1.50, 3.32, 2.22, 1.69, 7.41, repro,
2007-12-15,3.38, 0.47, 1.12, 2.21, 1.69, 7.46, repro,
2007-12-16,2.10, -0.59, 6.13, 2.19, 1.69, 7.38, repro,
2007-12-17,4.26, 1.78, 6.30, 2.20, 1.69, 7.33, repro,
2007-12-18,4.79, 1.63, 4.63, 2.16, 1.61, 7.15, repro,
2007-12-19,3.77, 2.56, 8.47, 2.18, 1.65, 7.30, repro,
2007-12-20,2.82, 4.76, 11.53, 2.15, 1.62, 7.24, repro,
2007-12-21,3.41, 1.63, 5.05, 2.24, 1.69, 7.56, repro,
2007-12-22,3.60, 1.45, -2.78, 2.20, 1.67, 7.40, repro,
2007-12-23,2.89, -3.38, -10.11, 2.19, 1.68, 7.36, repro,
2007-12-24,5.81, -0.66, -2.46, 2.16, 1.62, 7.21, repro,
2007-12-25,1.62, 2.38, 9.19, 2.30, 1.80, 7.73, repro,
2007-12-26,2.81, 1.08, 7.27, 2.17, 1.63, 7.27, repro,
2007-12-27,3.35, 1.70, 9.69, 2.17, 1.67, 7.39, repro,
2007-12-28,3.25, -2.44, 4.45, 2.18, 1.65, 7.27, repro,
2007-12-29,3.44, 2.84, 7.53, 2.25, 1.70, 7.40, repro,
2007-12-30,3.35, 5.22, 3.58, 2.21, 1.67, 7.38, repro,
2007-12-31,3.84, 0.37, 5.48, 2.22, 1.67, 7.32, repro,
2008-01-01,3.54, 3.16, -3.28, 2.14, 1.61, 7.19, repro,
2008-01-02,3.28, 2.45, -4.95, 2.23, 1.67, 7.37, repro,
2008-01-03,4.07, 0.56, -2.84, 2.21, 1.67, 7.37, repro,
2008-01-04,6.41, 4.28, 5.24, 2.23, 1.69, 7.34, repro,
2008-01-05,4.46, 5.38, 11.30, 2.23, 1.69, 7.39, repro,
2008-01-06,3.46, 3.34, 12.09, 2.11, 1.59, 7.09, repro,
2008-01-07,1.52, 0.83, 11.77, 2.30, 1.77, 7.75, repro,
2008-01-08,4.02, 1.63, -1.66, 2.34, 1.77, 7.78, repro,
2008-01-09,3.28, 1.93, 5.60, 2.32, 1.74, 7.65, repro,
2008-01-10,2.74, 0.06, 7.78, 2.16, 1.63, 7.17, repro,
2008-01-11,2.35, 4.25, 6.59, 2.13, 1.62, 7.09, repro,
2008-01-12,1.91, 1.18, 1.67, 2.18, 1.71, 7.56, repro,
2008-01-13,3.48, 1.92, -6.90, 2.16, 1.66, 7.27, repro,
2008-01-14,2.92, 2.18, 3.02, 2.21, 1.73, 7.61, repro,
2008-01-15,3.90, 1.88, 3.32, 2.17, 1.68, 7.39, repro,
2008-01-16,2.08, 3.35, 4.89, 2.21, 1.72, 7.49, repro,
2008-01-17,3.13, 3.51, 7.87, 2.27, 1.76, 7.83, repro,
2008-01-18,2.86, 2.69, 1.33, 2.23, 1.78, 7.70, repro,
2008-01-19,4.68, 0.54, -10.81, 2.29, 1.71, 7.67, repro,
2008-01-20,4.78, 3.50, -3.40, 2.24, 1.80, 7.79, repro,
2008-01-21,1.81, 4.16, 4.16, 2.29, 1.82, 7.94, repro,
2008-01-22,1.16, 2.93, 9.62, 2.18, 1.72, 7.52, repro,
2008-01-23,3.95, 3.43, 6.22, 2.20, 1.74, 7.64, repro,
2008-01-24,4.14, 3.71, 2.90, 2.29, 1.80, 8.01, repro,
2008-01-25,4.28, 4.07, 1.07, 2.27, 1.75, 7.74, repro,
2008-01-26,2.56, 3.52, -0.18, 2.29, 1.77, 7.82, repro,
2008-01-27,4.14, 2.77, 11.64, 2.27, 1.76, 7.79, repro,
2008-01-28,2.67, 3.15, 22.90, 2.19, 1.75, 7.56, repro,
2008-01-29,2.74, 0.61, 11.68, 2.31, 1.77, 7.93, repro,
2008-01-30,4.56, 2.33, 2.75, 2.27, 1.71, 7.55, repro,
2008-01-31,2.23, 1.00, 3.91, 2.21, 1.72, 7.55, repro,
2008-02-01,3.05, 4.55, 9.21, 2.18, 1.68, 7.37, repro,
2008-02-02,2.51, 1.45, 7.61, 2.18, 1.71, 7.38, repro,
2008-02-03,5.99, 5.53, 7.52, 2.17, 1.70, 7.50, repro,
2008-02-04,4.05, 1.32, -2.98, 2.14, 1.66, 7.35, repro,
2008-02-05,3.19, 2.94, 9.38, 2.35, 1.77, 7.94, repro,
2008-02-06,2.98, 1.25, 3.19, 2.34, 1.87, 8.11, repro,
2008-02-07,1.76, 1.61, 16.80, 2.39, 1.78, 7.94, repro,
2008-02-08,3.56, 2.49, 9.13, 2.20, 1.75, 7.65, repro,
2008-02-09,5.09, -2.63, -2.12, 2.18, 1.73, 7.47, repro,
2008-02-10,4.82, 1.26, -4.56, 2.25, 1.79, 7.85, repro,
2008-02-11,2.87, 1.01, 2.37, 2.17, 1.66, 7.36, repro,
2008-02-12,2.47, 5.80, -2.77, 2.24, 1.74, 7.61, repro,
2008-02-13,3.93, 1.63, 2.59, 2.19, 1.68, 7.49, repro,
2008-02-14,3.82, 2.53, 3.52, 2.23, 1.75, 7.56, repro,
2008-02-15,3.84, 2.89, 0.26, 2.17, 1.70, 7.36, repro,
2008-02-16,3.13, 1.11, 2.53, 2.23, 1.75, 7.65, repro,
2008-02-17,2.33, 3.27, -1.75, 2.23, 1.73, 7.54, repro,
2008-02-18,2.48, 3.75, 2.88, 2.24, 1.74, 7.65, repro,
2008-02-19,2.81, 3.56, 6.07, 2.24, 1.70, 7.53, repro,
2008-02-20,3.91, 4.10, 0.63, 2.13, 1.67, 7.28, repro,
2008-02-21,4.73, 3.47, 1.65, 2.30, 1.73, 7.84, repro,
2008-02-22,4.19, 3.44, 1.16, 2.24, 1.78, 7.80, repro,
2008-02-23,2.85, 3.46, 4.07, 2.25, 1.74, 7.64, repro,
2008-02-24,2.05, 4.67, 9.27, 2.20, 1.71, 7.40, repro,
2008-02-25,3.21, -0.87, -2.27, 2.25, 1.72, 7.51, repro,
2008-02-26,3.75, 0.91, -7.47, 2.24, 1.78, 7.69, repro,
2008-02-27,4.18, 2.53, -3.41, 2.34, 1.89, 8.21, repro,
2008-02-28,3.14, 2.01, -0.30, 2.26, 1.79, 7.93, repro,
2008-02-29,0.92, 2.51, 3.41, 2.18, 1.68, 7.40, repro,
2008-03-01,4.64, 3.37, -0.88, 2.16, 1.68, 7.36, repro,
2008-03-02,3.56, 2.42, -2.86, 2.22, 1.76, 7.61, repro,
2008-03-03,3.72, 1.06, -9.86, 2.35, 1.86, 8.24, repro,
2008-03-04,4.85, 3.35, -3.22, 2.22, 1.71, 7.71, repro,
2008-03-05,3.90, 1.94, -2.95, 2.33, 1.86, 8.14, repro,
2008-03-06,2.48, 2.35, -1.00, 2.25, 1.77, 7.83, repro,
2008-03-07,2.57, 2.65, -3.57, 2.19, 1.69, 7.52, repro,
2008-03-08,5.40, 2.40, -4.34, 2.12, 1.63, 7.24, repro,
2008-03-09,4.08, 2.17, -6.76, 2.23, 1.71, 7.71, repro,
2008-03-10,3.49, 3.23, -6.02, 2.26, 1.78, 7.78, repro,
2008-03-11,3.89, 0.21, -1.00, 2.11, 1.62, 7.17, repro,
2008-03-12,5.48, 2.14, -11.16, 2.20, 1.70, 7.74, repro,
2008-03-13,5.27, 3.55, 1.67, 2.14, 1.65, 7.39, repro,
2008-03-14,4.81, 1.08, 1.78, 2.19, 1.68, 7.44, repro,
2008-03-15,4.52, 2.01, -0.38, 2.16, 1.64, 7.40, repro,
2008-03-16,4.98, 2.15, 0.24, 2.14, 1.63, 7.32, repro,
2008-03-17,3.21, 1.66, 5.35, 2.24, 1.75, 7.81, repro,
2008-03-18,3.29, -3.51, -10.45, 2.19, 1.74, 7.80, repro,
2008-03-19,6.88, 7.60, 0.47, 2.14, 1.64, 7.31, repro,
2008-03-20,3.86, 3.56, 0.79, 2.18, 1.63, 7.38, repro,
2008-03-21,5.45, 3.95, -6.19, 2.16, 1.65, 7.43, repro,
2008-03-22,4.23, 3.41, -7.63, 2.24, 1.76, 7.73, repro,
2008-03-23,4.03, 2.12, -6.73, 2.14, 1.65, 7.34, repro,
2008-03-24,6.30, 5.63, -9.77, 2.13, 1.64, 7.27, repro,
2008-03-25,4.83, 5.25, 0.20, 2.18, 1.66, 7.30, repro,
2008-03-26,3.34, 4.44, 0.55, 2.28, 1.80, 7.78, repro,
2008-03-27,4.32, 5.18, -4.98, 2.20, 1.67, 7.37, repro,
2008-03-28,5.07, 3.12, -2.23, 2.28, 1.79, 7.84, repro,
2008-03-29,2.93, 3.64, 8.36, 2.31, 1.84, 7.93, repro,
2008-03-30,3.77, 1.70, 1.19, 2.20, 1.70, 7.46, repro,
2008-03-31,3.16, 1.00, 0.77, 2.24, 1.72, 7.50, repro,
2008-04-01,3.89, 2.63, -2.16, 2.24, 1.69, 7.60, repro,
2008-04-02,4.40, 3.07, -4.35, 2.36, 1.81, 8.06, repro,
2008-04-03,5.84, 3.01, -5.09, 2.21, 1.68, 7.48, repro,
2008-04-04,3.94, 2.88, -2.18, 2.25, 1.71, 7.60, repro,
2008-04-05,3.59, 4.37, 11.13, 2.13, 1.59, 7.15, repro,
2008-04-06,3.32, 1.87, 2.13, 2.20, 1.67, 7.40, repro,
2008-04-07,4.13, 1.46, -1.67, 2.19, 1.67, 7.40, repro,
2008-04-08,4.85, 3.84, -3.26, 2.19, 1.67, 7.37, repro,
2008-04-09,3.00, 2.39, 2.99, 2.19, 1.65, 7.34, repro,
2008-04-10,3.81, 2.79, 5.69, 2.21, 1.69, 7.40, repro,
2008-04-11,3.04, 1.99, -2.32, 2.19, 1.66, 7.25, repro,
2008-04-12,3.57, 3.19, -5.84, 2.23, 1.68, 7.61, repro,
2008-04-13,5.33, 3.42, -9.25, 2.18, 1.65, 7.32, repro,
2008-04-14,3.63, 3.04, 0.92, 2.18, 1.64, 7.23, repro,
2008-04-15,3.23, 4.35, 2.60, 2.21, 1.72, 7.37, repro,
2008-04-16,1.28, 3.92, 1.91, 2.28, 1.81, 7.67, repro,
2008-04-17,2.07, 3.34, -0.24, 2.23, 1.70, 7.48, repro,
2008-04-18,2.93, 3.77, -3.31, 2.17, 1.65, 7.30, repro,
2008-04-19,2.56, 4.72, -0.66, 2.22, 1.70, 7.36, repro,
2008-04-20,2.39, 6.94, 1.98, 2.19, 1.63, 7.25, repro,
2008-04-21,2.50, 6.80, 1.54, 2.18, 1.66, 7.31, repro,
2008-04-22,1.54, 5.52, -1.66, 2.20, 1.66, 7.33, repro,
2008-04-23,2.89, 3.58, -2.58, 2.23, 1.70, 7.49, repro,
2008-04-24,1.91, 1.87, -0.29, 2.18, 1.65, 7.32, repro,
2008-04-25,4.23, 5.03, -9.86, 2.21, 1.65, 7.35, repro,
2008-04-26,3.62, 4.24, -13.47, 2.29, 1.70, 7.48, repro,
2008-04-27,2.05, 3.33, -4.09, 2.30, 1.70, 7.45, repro,
2008-04-28,2.08, 2.50, -2.73, 2.28, 1.70, 7.48, repro,
2008-04-29,2.91, 4.24, 3.75, 2.34, 1.70, 7.54, repro,
2008-04-30,3.31, 2.49, 5.23, 2.22, 1.67, 7.37, repro,
2008-05-01,3.41, 2.00, -1.54, 2.24, 1.68, 7.38, repro,
2008-05-02,1.97, 2.10, 2.55, 2.21, 1.65, 7.32, repro,
2008-05-03,0.88, 2.28, 3.26, 2.32, 1.72, 7.64, repro,
2008-05-04,4.31, 2.77, 6.79, 2.22, 1.66, 7.34, repro,
2008-05-05,4.09, 2.47, -7.63, 2.24, 1.66, 7.35, repro,
2008-05-06,4.54, 1.76, 0.58, 2.24, 1.67, 7.44, repro,
2008-05-07,4.19, 0.99, -2.02, 2.20, 1.66, 7.24, repro,
2008-05-08,2.49, -0.66, -3.45, 2.24, 1.68, 7.38, repro,
2008-05-09,3.26, 3.26, 0.65, 2.29, 1.69, 7.53, repro,
2008-05-10,3.16, 2.75, -2.94, 2.19, 1.62, 7.13, repro,
2008-05-11,3.06, 2.84, -0.99, 2.29, 1.75, 7.54, repro,
2008-05-12,2.73, 0.27, 8.83, 2.20, 1.64, 7.18, repro,
2008-05-13,2.62, 2.12, 2.42, 2.23, 1.67, 7.35, repro,
2008-05-14,3.86, 0.08, -0.81, 2.20, 1.63, 7.21, repro,
2008-05-15,3.12, 2.51, 5.04, 2.28, 1.71, 7.43, repro,
2008-05-16,4.29, 1.48, -9.17, 2.21, 1.64, 7.22, repro,
2008-05-17,2.12, 2.01, 1.77, 2.25, 1.69, 7.48, repro,
2008-05-18,2.57, 1.46, -1.34, 2.24, 1.67, 7.39, repro,
2008-05-19,3.22, -0.03, -10.49, 2.14, 1.60, 7.22, repro,
2008-05-20,2.09, 1.09, 7.66, 2.18, 1.62, 7.21, repro,
2008-05-21,2.87, 1.96, 7.29, 2.20, 1.63, 7.26, repro,
2008-05-22,3.69, 0.77, 8.02, 2.21, 1.68, 7.44, repro,
2008-05-23,3.05, 1.17, 6.72, 2.20, 1.66, 7.29, repro,
2008-05-24,3.91, -0.42, -3.05, 2.16, 1.64, 7.17, repro,
2008-05-25,3.48, 1.02, 5.33, 2.20, 1.63, 7.29, repro,
2008-05-26,1.06, 0.57, 6.35, 2.20, 1.66, 7.34, repro,
2008-05-27,2.35, 1.24, -1.09, 2.16, 1.62, 7.15, repro,
2008-05-28,3.45, 1.76, -1.02, 2.13, 1.59, 7.13, repro,
2008-05-29,3.19, 1.22, 5.32, 2.17, 1.64, 7.25, repro,
2008-05-30,2.16, 1.67, -1.21, 2.17, 1.64, 7.23, repro,
2008-05-31,2.27, 2.28, -0.41, 2.13, 1.58, 7.19, repro,